Hourly Weather Roundup
Issued by NWS Central Illinois

Current Version | Previous Version | Text Only | Print | Product List | Glossary On
Versions: 1 2 3 4 5 6 7 8 9 10 11 12 13 14 15 16 17 18 19 20 21 22 23 24 25 26 27 28 29 30 31 32 33 34 35 36 37 38 39 40 41 42 43 44 45 46 47 48 49 50
035
NZUS43 KILX 191410
HWRILX

Area Weather Roundup
National Weather Service Lincoln IL
900 AM CDT SAT OCT 19 2019

NOTE:  "FAIR" indicates few or no clouds below 12,000 feet, with
       no sigificant weather and/or obstructions to visibility.


CITY           SKY/WX    TMP DP  RH WIND       PRES   REMARKS
Bloomington    FAIR      51  42  71 S14       29.86S
Champaign      FAIR      48  42  80 S5        29.89R
Danville       FAIR      48  42  79 SE3       29.88R
Decatur        FAIR      51  41  68 S7        29.88R
Effingham      FAIR      51  38  60 SE6       29.91R
Flora          NOT AVBL
Galesburg      FAIR      49  42  78 E6        29.81S
Jacksonville   SUNNY     52  43  72 S6        29.83S
Lacon          FAIR      53  42  68 S10       29.82S
Lawrenceville  FAIR      52  43  71 S6        29.91R
Litchfield     SUNNY     52  43  71 S6        29.88R
$$


CITY           SKY/WX    TMP DP  RH WIND       PRES   REMARKS
Lincoln        FAIR      53  44  73 S7        29.86S
Macomb         SUNNY     49  43  79 S5        29.82S
Mattoon        FAIR      49  41  74 S10       29.88R
Mt Carmel AP   FAIR      49  42  76 SE3       29.91R
Olney-Noble AP FAIR      52  45  76 SE7       29.90S
Paris AP       FAIR      51  44  77 SE9       29.90S
Peoria         FAIR      53  42  66 S12       29.83S
Pontiac        FAIR      52  42  69 S12       29.87S
Rantoul        FAIR      48  41  77 S7        29.89R
Robinson       FAIR      49  43  81 SE7       29.92S
Springfield    FAIR      53  42  66 S9        29.85R
Taylorville    FAIR      52  43  71 SE9       29.87R
$$

...REGIONAL REPORTS...


CITY           SKY/WX    TMP DP  RH WIND       PRES   REMARKS
Chicago O`Hare FAIR      49  40  71 S10       29.85F
Kankakee       FAIR      48  42  80 SE6       29.89F
La Salle       FAIR      49  40  73 S10       29.83S
Moline         FAIR      54  42  64 VRB6      29.77F
Mount Sterling SUNNY     50  44  79 S7        29.80S
Mount Vernon   FAIR      51  44  77 CALM      29.89R
Pittsfield     SUNNY     52  47  83 SE6       29.82S
Quincy         SUNNY     54  42  64 S8        29.78F
Rockford       PTSUNNY   50  42  74 S10       29.83R
$$


CITY           SKY/WX    TMP DP  RH WIND       PRES   REMARKS
Burlington     SUNNY     53  43  68 S10       29.78S
Cedar Rapids   CLOUDY    51  45  79 S8        29.74R
Des Moines     LGT RAIN  52  51  97 W6        29.76R FOG
Kirksville     MOSUNNY   53  48  83 S8        29.78R
Ottumwa        PTSUNNY   52  45  77 S8        29.75R
St Louis       MOSUNNY   54  43  66 SE8       29.84F
$$


CITY           SKY/WX    TMP DP  RH WIND       PRES   REMARKS
Terre Haute    FAIR      51  42  71 SE12      29.91S
Evansville     FAIR      47  42  83 CALM      29.92S
Indianapolis   FAIR      49  41  74 SE8       29.92S
Lafayette      FAIR      50  41  71 SE5       29.90F
Madison        PTSUNNY   51  41  68 S10       29.77R
Milwaukee      PTSUNNY   52  41  66 S17G25    29.82F
$$






USA.gov is the U.S. government's official web portal to all federal, state and local government web resources and services.